BEIDOU-3S IGSO-1S (C31)

Last updated on Mon Oct 20 2025 00:03:24 GMT+0000 (Coordinated Universal Time)

1 40549U 15019A 25291.99977603 -.00000138 00000+0 00000+0 0 9998 2 40549 49.6547 298.3677 0040629 197.2687 342.2492 1.00252319 38653
UTC large
Height (km)
Speed (km/s)
/
Latitude / Longitude
Inclination (degrees)
Orbital Period (minutes)
Azimuth
Elevation
Range (km)
Doppler Factor

Next 0 passes for location: London (51.5072 / 0.1276)

Sorry there are no passes over London.